Wetbulb
55.87 54.04 51.61 48.01 45.03 46.80 39.02 41.65 38.37 41.70 45.35 50.43 53.76 54.60 55.36 58.35 64.93 65.10 65.63 67.91 68.38 68.78 68.93 68.89 69.71 71.02 71.53 72.38 72.22 73.07 73.51 73.96
54.62 56.13 52.87 48.79 49.21 42.30 42.87 34.62 35.38 41.49 43.41 45.57 49.12 51.38 54.12 55.05 60.68 64.06 66.61 68.36 68.92 68.96 69.22 69.61 70.11 71.42 72.02 72.91 72.85 73.21 73.71 74.34
50.35 50.27 49.24 46.87 45.57 45.89 42.69 40.88 36.20 36.69 42.54 50.01 51.23 52.96 53.51 55.60 57.10 62.11 65.69 68.03 69.35 69.66 70.15 69.99 70.38 71.04 71.60 72.28 73.44 73.83 74.43 74.18
43.99 50.91 54.05 50.88 47.37 46.04 42.28 38.38 40.80 39.44 43.13 53.45 53.39 55.04 55.37 56.40 57.35 61.19 65.22 67.83 69.77 70.06 70.47 70.04 69.78 70.38 71.00 71.99 73.49 74.35 74.93 74.77
42.02 46.06 49.86 49.16 48.85 48.32 45.13 43.81 40.13 39.84 42.43 54.05 54.56 55.10 56.17 57.20 57.82 59.26 63.89 66.66 69.21 70.13 70.01 70.07 69.92 69.99 70.63 71.41 72.94 74.14 74.83 74.97
39.26 43.22 46.54 46.61 49.03 48.59 46.58 43.09 42.48 44.96 43.67 51.20 53.38 54.15 55.71 56.90 59.08 58.98 63.26 65.94 68.28 69.57 70.06 70.65 70.49 70.32 70.45 71.25 72.47 74.28 74.69 75.10
46.29 48.78 49.67 49.62 49.01 49.04 46.47 46.33 44.94 45.85 46.78 50.48 52.52 55.31 56.85 58.09 59.37 61.12 61.07 65.40 67.18 68.89 69.69 70.57 70.69 70.58 71.01 71.47 72.39 73.15 74.46 75.03
43.89 49.41 49.99 49.48 51.08 50.27 49.41 48.88 48.16 48.32 47.11 53.86 55.67 57.54 57.74 57.99 58.98 59.24 60.94 63.60 63.85 66.31 68.83 70.24 71.17 71.14 71.39 71.58 71.99 72.95 73.52 74.39
37.71 47.18 48.82 44.42 49.80 50.12 49.84 50.96 49.63 46.44 49.22 54.43 54.23 56.78 56.25 56.67 57.63 57.20 57.67 59.00 61.60 63.12 65.09 69.30 71.42 72.34 72.14 72.47 73.01 72.69 72.62 73.29
37.54 43.79 36.20 47.13 53.87 54.07 51.35 51.76 51.66 50.95 55.22 55.18 55.80 57.68 58.10 57.94 57.17 58.30 60.30 60.70 60.26 63.24 62.83 63.10 67.63 72.69 73.02 73.28 72.99 73.01 72.75 72.94
35.30 40.11 43.81 49.03 50.01 49.90 49.60 50.03 54.79 55.27 56.24 57.79 59.37 60.42 59.98 62.89 63.42 63.15 63.40 64.49 65.06 65.94 66.10 66.18 66.00 64.92 70.60 73.09 73.14 73.01 73.25 73.48
38.85 37.50 38.22 44.22 50.08 51.44 52.96 44.23 52.98 54.86 57.42 57.07 59.13 53.86 56.06 61.45 62.85 62.78 64.35 65.37 66.41 66.24 66.63 66.18 66.29 67.27 68.42 70.64 72.68 72.21 72.84 74.12
37.18 36.50 41.77 45.27 49.34 53.65 44.11 44.66 51.57 51.81 53.69 54.29 52.29 54.55 56.36 60.15 61.13 63.06 63.52 63.95 65.42 66.95 67.64 66.98 67.62 66.78 67.24 66.27 67.90 71.95 73.23 73.39
36.21 36.60 34.50 47.96 48.15 42.95 48.88 51.56 51.59 50.78 51.33 51.86 52.53 53.14 53.88 56.18 58.77 60.05 61.78 63.44 64.63 64.54 66.05 68.26 68.26 66.55 64.11 67.33 67.86 72.09 72.47 72.81
37.51 37.03 45.91 48.44 47.46 49.97 50.45 49.09 48.95 49.35 50.06 50.78 51.39 51.83 52.66 52.64 57.09 58.82 59.99 62.75 64.09 64.11 66.58 67.83 70.12 67.74 65.78 67.93 72.26 71.82 72.32 73.12
37.57 41.27 43.29 46.85 47.36 48.14 48.06 48.68 49.55 49.66 50.01 50.59 49.60 51.37 51.33 52.13 56.52 57.51 60.30 61.17 63.38 64.73 66.63 70.14 73.64 73.03 72.73 73.72 73.20 72.44 73.42 72.40
36.69 40.40 41.62 45.63 45.18 46.41 47.16 48.26 49.91 51.26 51.16 50.15 50.41 50.91 51.87 52.47 54.39 55.00 56.01 61.40 62.14 64.47 65.53 70.15 71.32 73.77 73.64 74.30 73.97 73.93 73.90 75.41
33.77 39.04 38.85 40.09 43.77 45.63 44.77 45.70 47.74 49.36 50.12 52.45 52.14 50.21 52.46 51.99 52.81 53.21 53.73 53.93 60.82 62.75 65.11 70.28 69.87 70.62 71.33 72.32 72.82 73.15 74.20 74.62
38.53 42.78 42.76 43.07 44.49 45.97 45.18 46.28 47.30 48.98 50.17 50.42 51.32 52.35 51.39 51.05 51.80 53.42 53.59 53.42 60.18 60.89 65.13 67.60 69.86 69.33 70.25 70.76 72.39 71.66 70.46 73.72
MSLP
992.67 992.64 993.16 993.88 994.42 995.79 996.60 997.20 997.43 996.51 995.50 994.35 993.58 992.78 993.10 993.33 994.18 995.30 996.58 997.48 998.46 999.83 1000.79 1001.97 1003.04 1004.07 1005.18 1006.69 1007.73 1008.57 1009.26 1009.99
992.21 992.49 991.97 992.18 993.90 995.13 995.80 997.24 997.39 996.72 995.26 993.50 992.96 992.27 992.14 992.56 992.89 993.27 994.24 995.53 997.28 998.71 999.78 1000.91 1001.92 1002.86 1004.27 1005.63 1006.80 1007.61 1008.54 1009.15
992.88 991.32 990.95 991.53 992.53 993.66 995.34 996.25 996.84 996.40 994.06 991.92 991.70 991.31 991.14 991.39 991.95 992.54 993.32 994.52 995.94 997.50 998.65 999.70 1000.80 1002.16 1003.33 1004.63 1005.90 1006.97 1007.69 1008.49
992.58 990.78 990.50 991.11 991.57 992.89 994.02 995.28 995.61 995.22 992.54 990.72 989.98 989.55 990.13 990.55 990.89 991.33 992.32 993.49 994.94 996.35 997.55 999.05 1000.13 1001.32 1002.27 1003.42 1004.72 1005.85 1006.80 1007.68
993.28 992.27 991.05 990.21 990.54 991.69 993.14 994.30 994.74 994.67 992.35 990.76 989.41 988.24 989.10 990.00 990.50 991.10 991.98 993.09 994.29 995.70 996.88 998.09 999.21 1000.18 1001.34 1002.37 1003.54 1004.75 1005.90 1006.74
994.78 991.85 991.08 990.04 989.86 990.88 992.17 993.04 993.78 992.85 992.64 991.36 989.97 988.70 989.50 990.11 990.57 990.98 991.51 992.79 993.90 995.08 996.11 997.13 998.30 999.31 1000.34 1001.38 1002.46 1003.61 1004.74 1005.64
994.83 992.34 991.15 990.19 989.54 989.87 990.57 991.84 992.31 992.22 992.29 991.31 990.51 989.81 989.97 990.25 990.84 991.39 991.97 992.55 993.59 994.44 995.40 996.32 997.41 998.36 999.22 1000.09 1001.15 1002.27 1003.47 1004.26
994.67 992.73 991.62 990.58 989.07 988.79 989.83 990.62 991.50 991.24 991.30 990.81 990.47 990.43 990.98 991.46 991.97 992.53 992.77 992.94 993.69 994.25 994.93 995.60 996.30 997.33 998.26 999.32 1000.19 1001.21 1001.95 1002.76
995.83 993.61 992.37 991.11 989.61 988.93 989.28 990.01 990.82 991.09 990.76 990.90 991.27 991.42 991.63 992.23 992.88 993.34 993.46 994.04 994.38 994.57 995.10 995.65 996.17 996.77 997.52 998.34 999.22 1000.10 1000.80 1001.65
997.64 994.88 993.65 991.56 990.28 989.87 989.44 990.28 991.03 990.89 990.88 990.76 991.52 992.52 992.64 992.37 992.96 993.81 994.38 994.92 995.19 995.60 995.89 995.80 996.18 996.48 996.78 997.80 998.60 999.33 1000.04 1000.81
999.20 996.69 994.83 992.86 993.04 992.36 991.29 993.48 993.89 992.64 991.36 991.35 992.22 993.04 994.96 994.87 994.69 995.14 995.36 995.60 995.88 996.17 996.38 996.59 996.75 997.08 997.14 997.65 998.16 998.82 999.35 999.97
1000.34 998.79 997.01 997.11 994.35 992.65 991.84 995.65 996.67 995.15 993.33 992.40 992.86 995.53 997.29 996.67 996.13 996.10 996.26 996.35 996.41 996.31 996.60 996.81 997.17 997.06 997.13 997.00 997.34 998.04 998.49 999.04
1001.65 1000.78 999.95 999.35 996.90 994.25 994.88 999.94 999.01 997.86 996.89 996.36 996.85 998.50 998.31 997.62 997.31 997.18 997.11 997.19 997.10 997.04 997.44 997.32 997.01 997.45 997.50 997.57 997.83 997.74 997.85 998.37
1003.29 1002.48 1002.74 1001.59 999.73 999.35 1000.53 1000.32 1000.16 999.74 999.20 998.71 999.04 999.02 999.12 998.88 998.78 998.52 998.42 998.17 998.08 998.12 997.97 997.76 997.26 997.17 997.49 997.56 997.29 997.42 997.79 998.51
1006.57 1005.64 1004.14 1003.17 1002.47 1001.80 1001.49 1001.38 1001.36 1001.11 1000.76 1000.52 1000.42 1000.35 1000.41 1000.42 1000.14 999.99 999.78 999.54 999.34 999.23 998.76 998.08 997.41 997.24 997.35 997.43 997.42 997.67 997.83 998.08
1007.26 1005.61 1005.87 1004.97 1004.30 1003.52 1003.55 1003.33 1002.27 1001.99 1001.89 1001.57 1001.55 1001.48 1001.42 1001.39 1001.38 1001.06 1000.64 1000.17 999.77 999.57 999.37 998.76 998.07 997.57 997.57 997.50 997.44 997.53 997.89 998.03
1008.04 1007.30 1006.74 1004.79 1004.96 1005.58 1005.01 1004.63 1003.70 1003.00 1002.07 1001.87 1001.91 1002.01 1001.99 1002.16 1002.23 1001.87 1001.29 1000.52 999.92 999.96 999.75 999.31 998.69 998.36 998.15 997.97 997.75 997.69 997.56 997.59
1009.92 1009.06 1009.52 1007.43 1006.21 1006.12 1006.14 1005.27 1004.81 1004.26 1003.24 1002.32 1001.81 1001.94 1002.14 1002.36 1002.46 1002.19 1001.46 1000.47 1000.02 1000.17 1000.24 999.70 998.89 998.59 998.54 998.42 998.30 998.25 997.95 997.68
1009.89 1008.72 1007.75 1006.84 1006.76 1006.11 1005.79 1005.11 1004.94 1004.23 1003.45 1003.20 1002.53 1002.07 1001.86 1001.88 1001.76 1001.43 1001.10 1000.74 1000.54 1000.53 1000.57 1000.42 999.61 999.01 998.71 998.63 998.69 998.58 998.40 997.79
Wind_Speed
28 20 20 20 22 12 3 7 3 4 7 13 17 15 9 10 24 33 29 29 29 28 25 24 22 25 25 22 21 20 20 17
21 26 21 18 12 13 9 10 10 10 13 16 15 20 13 11 19 25 27 30 29 26 25 23 23 22 23 21 22 21 20 17
16 26 28 12 13 16 6 6 7 6 11 11 22 22 21 12 12 20 24 28 28 26 24 25 24 20 22 21 22 20 19 17
27 15 24 16 15 15 11 12 5 5 13 6 6 27 22 18 12 16 23 25 27 27 25 23 23 21 23 21 21 20 19 18
17 16 20 29 23 18 8 6 10 9 11 4 12 15 22 14 15 10 19 20 25 25 23 22 23 22 21 21 21 20 18 18
12 15 7 13 24 20 16 10 9 16 4 11 12 10 9 9 10 9 15 20 23 23 22 22 22 22 21 20 20 20 20 19
14 12 9 15 26 23 20 16 15 12 8 8 1 7 7 7 8 10 8 20 21 23 22 23 22 22 21 22 21 21 21 21
5 9 10 17 19 26 20 19 16 10 9 9 7 8 14 11 14 11 9 10 10 9 17 22 23 22 21 20 21 21 21 22
5 4 5 5 17 16 20 18 19 17 9 7 6 10 13 11 10 10 10 10 9 9 8 10 16 19 21 20 19 21 21 20
6 5 2 8 8 9 16 13 14 12 9 15 10 7 10 8 12 10 11 10 10 11 9 3 6 15 17 15 16 19 19 18
3 0 3 4 14 15 2 12 25 17 4 11 19 23 17 16 16 13 11 8 7 8 6 8 9 2 9 15 14 13 18 16
5 4 3 18 26 30 15 12 22 21 24 18 18 15 5 12 15 16 14 12 12 9 6 8 6 7 3 7 15 15 13 13
6 3 7 20 28 17 12 5 14 19 19 22 22 9 7 14 14 12 12 14 14 14 11 7 5 5 5 3 1 7 8 10
2 5 5 16 16 20 3 8 11 14 16 17 15 16 15 13 13 12 11 13 14 13 13 13 9 4 3 3 3 2 7 6
8 6 4 7 15 14 14 9 10 10 11 10 12 11 10 10 10 9 9 8 9 10 12 15 11 4 5 5 1 3 5 7
12 12 17 17 15 20 17 22 9 8 7 8 8 9 8 8 8 8 8 8 8 12 15 10 10 8 5 6 3 2 5 6
15 9 21 9 17 17 21 21 20 19 11 5 5 5 5 6 7 8 9 9 10 11 14 10 6 7 7 7 8 8 5 6
11 22 17 26 24 21 20 20 20 16 17 15 7 5 4 4 3 5 9 12 11 11 12 16 5 6 7 7 8 9 6 4
22 20 25 26 23 24 20 19 17 18 13 13 9 7 5 4 5 7 7 9 10 10 9 15 7 5 3 5 7 7 7 5
Wind_Direction
227 212 216 204 216 215 260 211 248 207 254 262 259 270 209 208 176 177 186 192 179 182 182 183 177 177 180 182 189 189 193 192
219 229 231 212 173 214 211 198 221 234 218 232 234 246 240 211 195 184 176 176 176 179 181 182 183 181 179 181 187 190 193 196
240 209 218 198 194 200 181 188 179 207 239 225 223 221 230 218 183 191 173 173 173 177 181 181 183 176 180 181 186 190 194 198
240 254 210 225 212 196 203 229 222 196 258 316 261 207 208 216 206 180 176 171 169 175 180 178 181 179 182 182 184 189 191 192
249 254 266 214 201 212 180 145 217 224 260 264 312 198 192 193 199 162 166 166 169 173 178 178 182 182 183 187 185 187 188 194
258 231 223 220 204 199 203 200 212 240 233 301 329 154 141 153 145 172 144 159 171 174 177 179 181 182 186 187 189 183 189 193
264 270 278 270 200 194 206 209 196 234 183 217 329 48 132 143 131 142 147 162 165 178 179 180 180 184 187 189 188 187 188 195
275 288 277 285 243 193 199 212 223 247 224 209 171 90 72 75 81 75 67 123 116 143 178 182 181 185 186 189 191 189 194 199
307 317 293 301 252 196 203 196 209 223 210 151 136 130 130 114 97 93 87 85 88 97 124 152 177 182 185 189 188 194 199 200
285 42 135 256 344 326 208 195 203 225 168 157 154 65 50 94 115 94 71 56 55 56 36 76 142 184 189 182 184 191 200 200
299 202 307 271 5 337 76 47 10 2 251 159 106 68 38 39 58 67 65 64 62 71 58 44 36 235 174 183 187 179 197 194
348 287 183 356 342 329 305 50 12 12 28 116 89 79 35 32 43 42 40 35 23 20 46 23 15 12 71 184 184 195 192 189
297 311 0 339 341 359 58 42 21 15 29 47 64 63 37 34 31 38 35 25 16 16 8 333 335 53 17 69 147 234 197 173
323 338 0 337 356 48 8 37 42 22 20 38 39 37 28 20 25 23 25 19 13 9 348 338 311 347 315 263 252 257 198 201
342 348 311 48 314 10 19 26 14 28 11 26 30 25 22 6 14 15 5 22 11 3 339 332 319 271 274 258 232 221 222 209
352 341 333 324 1 358 355 348 351 357 5 8 23 15 13 8 4 355 356 12 360 3 346 332 358 19 28 5 321 277 272 240
299 309 341 308 326 331 334 335 339 346 318 308 338 18 36 15 4 344 342 352 10 359 345 315 3 19 13 5 5 327 269 233
283 301 287 280 296 307 311 313 317 322 332 341 2 354 49 33 344 333 333 345 353 358 339 331 14 25 15 5 355 343 302 243
275 276 275 271 280 288 287 282 281 300 312 325 326 330 0 349 337 330 335 352 340 337 326 322 332 7 350 11 343 340 326 281